[[{"header":{"parameterUnit":"m.s-1","parameterCategory":1,"la1":30.2991,"la2":30.254,"lo1":-89.0895,"lo2":-89.0444,"dy":0.0017,"dx":0.0017,"nx":28,"ny":28,"refTime":"2025-04-19T03:00:00:Z","depth":0,"parameterNumber":2,"parameterNumberName":"U-component_of_WINDS"},"data":[0,0,0,0,0,0,0,0,0,0,0,0,0,0,0,0,0,0,0,0,0,0,0,0,0,0,0,0,0,0,0,0,0,0,0,0,0,0,0,0,0,0,0,0,0,0,0,0,0,0,0,0,0,0,0,0,0,0,-3.9374,-3.9375,0,-3.9461,-3.9462,-3.9463,-3.9449,-3.9447,-3.9446,-3.9444,-3.9534,-3.9538,-3.9542,0,0,0,0,0,0,0,0,0,0,0,0,0,-3.9197,-3.92,-3.9374,-3.9375,-3.9376,-3.9461,-3.9463,-3.9464,-3.9449,-3.9447,-3.9445,-3.9443,-3.9533,-3.9538,-3.9542,0,0,0,0,0,0,0,0,0,0,0,0,0,-3.9278,-3.9201,-3.9374,-3.9379,-3.9381,-3.9461,-3.9463,-3.9464,-3.9449,-3.9447,-3.9445,-3.9443,-3.9532,-3.9537,-3.9543,-3.9624,0,0,-3.9561,-3.9563,0,0,0,0,0,0,0,0,-3.9274,-3.9285,-3.9377,-3.9379,-3.9381,-3.9442,-3.9433,-3.9518,-3.945,-3.9423,-3.9444,-3.9441,-3.9506,-3.9513,-3.9535,-3.9628,-3.9632,-3.9561,-3.9564,-3.9567,-3.9569,0,0,0,0,0,0,0,-3.9268,-3.9281,-3.9409,-3.9379,-3.9381,-3.9378,-3.9387,-3.9449,-3.9476,-3.9425,-3.9424,-3.9435,-3.9506,-3.9529,-3.9537,-3.9634,-3.9561,-3.9566,-3.9569,-3.9572,-3.9799,-3.9801,0,0,0,0,0,0,-3.9261,-3.9276,-3.9406,-3.9411,-3.932,-3.9383,-3.9393,-3.9425,-3.9475,-3.9481,-3.9437,-3.9434,-3.9521,-3.953,-3.954,-3.9638,-3.9567,-3.9572,-3.9576,-3.9796,-3.9799,-3.9802,0,0,0,0,0,0,-3.9257,-3.9272,-3.9402,-3.9344,-3.936,-3.9388,-3.9424,-3.9427,-3.945,-3.9484,-3.9489,-3.9455,-3.9519,-3.9532,-3.9603,-3.9641,-3.9575,-3.958,-3.9793,-3.9797,-3.9801,-3.9834,0,0,0,0,0,0,-3.9252,-3.9271,-3.9301,-3.9344,-3.9363,-3.9464,-3.9426,-3.9431,-3.946,-3.9457,-3.9503,-3.9508,-3.9518,-3.9595,-3.9609,-3.9647,-3.9585,-3.979,-3.9795,-3.98,-3.983,-3.9839,-3.9847,0,0,0,0,0,-3.9245,-3.9307,-3.9303,-3.9319,-3.9402,-3.9466,-3.9477,-3.9487,-3.9463,-3.9494,-3.9516,-3.9507,-3.9635,-3.9602,-3.9618,-3.9659,-3.9788,-3.9794,-3.9799,-3.9826,-3.9837,-3.9846,0,0,0,0,0,0,-3.9268,-3.9313,-3.9308,-3.9386,-3.9422,-3.9463,-3.9502,-3.9498,-3.9542,-3.9537,-3.9548,-3.9559,-3.9631,-3.9653,-3.9616,-3.9741,-3.9708,-3.9717,-3.9723,-3.9734,-3.9742,-3.9734,-3.9589,0,0,0,0,0,-3.9282,-3.933,-3.9367,-3.9432,-3.9451,-3.9474,-3.9502,-3.9507,-3.9545,-3.956,-3.9587,-3.9625,-3.9674,-3.9705,-3.9752,-3.9834,-3.9844,-3.987,-3.9878,-3.9885,-3.9892,-3.9937,-3.9949,-3.9821,-3.9821,-3.9821,0,0,-3.9311,-3.9342,-3.9371,-3.9437,-3.9466,-3.9516,-3.9486,-3.954,-3.9577,-3.9568,-3.9637,-3.9659,-3.9702,-3.9779,-3.9814,-3.9799,-3.993,-3.9893,-3.9898,-3.9901,-3.9944,-3.9956,-3.9967,-3.9825,-3.9825,-3.9824,0,0,-3.939,-3.9418,-3.9475,-3.9505,-3.9548,-3.9564,-3.9578,-3.962,-3.9634,-3.9703,-3.9697,-3.9743,-3.9826,-3.9857,-3.9884,-3.9976,-3.9969,-3.9992,-4.0034,-4.0078,-4.0088,-4.0096,-4.0128,-4.014,-3.9999,-3.9999,-3.9999,0,-3.942,-3.9494,-3.9505,-3.956,-3.9589,-3.9584,-3.9642,-3.967,-3.9727,-3.9748,-3.9731,-3.9836,-3.9865,-3.9949,-3.9971,-3.9994,-4.001,-3.9985,-4.0085,-4.0094,-4.0103,-4.0133,-4.0146,-4.0002,-4.0001,-4.0001,-4.0001,0,-3.953,-3.9581,-3.9623,-3.9677,-3.9712,-3.9768,-3.9788,-3.9822,-3.9825,-3.9842,-3.9913,-3.9948,-4.0002,-4.0023,-4.0026,-4.0108,-4.0097,-4.0082,-4.005,-4.0117,-4.0146,-4.0158,-4.0005,-4.0004,-4.0003,-4.0003,0,0,-3.9622,-3.9683,-3.9698,-3.9723,-3.9772,-3.9812,-3.9869,-3.9922,-3.995,-3.9991,-4.0038,-4.011,-4.0098,-4.0128,-4.0135,-4.0174,-4.0244,-4.0155,-4.0156,-4.0169,-4.0336,-4.0345,-4.0358,-4.0241,-4.0243,-4.0245,-4.0332,0,-3.9703,-3.9802,-3.9814,-3.9903,-3.9951,-3.9948,-3.9997,-4.0033,-4.0052,-4.0096,-4.0117,-4.0168,-4.0147,-4.0166,-4.0204,-4.0227,-4.0277,-4.0222,-4.0285,-4.0287,-4.0271,-4.0373,-4.0383,-4.0463,-4.0343,-4.0345,-4.0347,0,-3.9811,-3.9854,-3.9947,-3.999,-4.001,-4.0054,-4.0104,-4.0146,-4.0188,-4.0199,-4.0234,-4.0236,-4.0296,-4.0263,-4.0345,-4.0307,-4.0334,-4.035,-4.0353,-4.0357,-4.0319,-4.0379,-4.0489,-4.05,-4.0365,-4.0363,-4.0362,0,-3.9867,-3.9949,-4.0015,-4.0036,-4.0089,-4.012,-4.0143,-4.0182,-4.0213,-4.0257,-4.0277,-4.0328,-4.0356,-4.0395,-4.0412,-4.0386,-4.0493,-4.0461,-4.0503,-4.0503,-4.0524,-4.0522,-4.0638,-4.0545,-4.0545,-4.0544,-4.0544,0,-3.9956,-4.0012,-4.004,-4.0081,-4.0144,-4.0159,-4.0222,-4.0245,-4.028,-4.0325,-4.0327,-4.0369,-4.039,-4.0436,-4.045,-4.0515,-4.0528,-4.0539,-4.0541,-4.0537,-4.0536,-4.0553,-4.0548,-4.0548,-4.0547,-4.0546,-4.0546,0,-4.0028,-4.0049,-4.0121,-4.0165,-4.0177,-4.0222,-4.026,-4.03,-4.0319,-4.0376,-4.0391,-4.0421,-4.0475,-4.0497,-4.0564,-4.0573,-4.0648,-4.0647,-4.0634,-4.0634,-4.0674,-4.0669,-4.0804,-4.0822,-4.0719,-4.072,-4.0721,0,-4.0082,-4.0125,-4.0174,-4.0204,-4.0228,-4.0277,-4.0309,-4.0326,-4.036,-4.0411,-4.0444,-4.0499,-4.0543,-4.063,-4.0658,-4.071,-4.0709,-4.0753,-4.0717,-4.0711,-4.0708,-4.0704,-4.0708,-4.0758,-4.0759,-4.076,-4.0761,0,-4.0175,-4.0184,-4.0229,-4.0279,-4.0317,-4.0357,-4.0396,-4.0421,-4.0444,-4.0482,-4.0537,-4.0571,-4.064,-4.0694,-4.0747,-4.0772,-4.077,-4.0773,-4.0785,-4.078,-4.077,-4.0774,-4.065,-4.0769,-4.0768,-4.0767,-4.0767,-4.0767,-4.0239,-4.0277,-4.0317,-4.0368,-4.04,-4.0436,-4.0476,-4.05,-4.0547,-4.0603,-4.0611,-4.0671,-4.0712,-4.0784,-4.0811,-4.0858,-4.0847,-4.0865,-4.0869,-4.0872,-4.0874,-4.0764,-4.0868,-4.0868,-4.0868,-4.0868,-4.0868,0,-4.033,-4.0357,-4.0403,-4.0458,-4.0498,-4.0494,-4.0538,-4.0572,-4.0624,-4.0663,-4.0706,-4.0771,-4.0824,-4.0857,-4.091,-4.0942,-4.0942,-4.0955,-4.0952,-4.0957,-4.0882,-4.0866,-4.0953,-4.0953,-4.0953,-4.0953,-4.0953,-4.0953,-4.0383,-4.0447,-4.0461,-4.0542,-4.0568,-4.0626,-4.0651,-4.0685,-4.0716,-4.0788,-4.0831,-4.0853,-4.089,-4.0946,-4.0995,-4.1003,-4.1022,-4.1035,-4.1043,-4.0972,-4.0963,-4.0954,-4.0938,-4.104,-4.104,-4.1114,-4.1114,-4.1115]},{"header":{"parameterUnit":"m.s-1","parameterCategory":1,"la1":30.2991,"la2":30.254,"lo1":-89.0895,"lo2":-89.0444,"dy":0.0017,"dx":0.0017,"nx":28,"ny":28,"refTime":"2025-04-19T03:00:00:Z","depth":0,"parameterNumber":3,"parameterNumberName":"V-component_of_WINDS"},"data":[0,0,0,0,0,0,0,0,0,0,0,0,0,0,0,0,0,0,0,0,0,0,0,0,0,0,0,0,0,0,0,0,0,0,0,0,0,0,0,0,0,0,0,0,0,0,0,0,0,0,0,0,0,0,0,0,0,0,2.5485,2.5487,0,2.5627,2.5628,2.563,2.572,2.5721,2.5721,2.5722,2.5863,2.5866,2.5869,0,0,0,0,0,0,0,0,0,0,0,0,0,2.5291,2.5294,2.5485,2.5487,2.5489,2.5626,2.5628,2.563,2.572,2.5721,2.5721,2.5722,2.5862,2.5865,2.5869,0,0,0,0,0,0,0,0,0,0,0,0,0,2.5398,2.5295,2.5485,2.555,2.5558,2.5626,2.5628,2.5631,2.572,2.5721,2.5722,2.5722,2.586,2.5865,2.587,2.5883,0,0,2.5885,2.5887,0,0,0,0,0,0,0,0,2.5392,2.5405,2.5539,2.5546,2.5554,2.5657,2.5612,2.5715,2.572,2.5658,2.5722,2.5723,2.5793,2.5804,2.5828,2.589,2.5896,2.5885,2.5888,2.589,2.5892,0,0,0,0,0,0,0,2.5384,2.54,2.5541,2.5541,2.555,2.5572,2.5588,2.5632,2.5719,2.5664,2.5671,2.5686,2.5798,2.5823,2.5832,2.5898,2.5885,2.5889,2.5892,2.5894,2.5981,2.598,0,0,0,0,0,0,2.5367,2.5393,2.5537,2.5545,2.5474,2.5575,2.5593,2.5623,2.5719,2.5735,2.5685,2.569,2.5815,2.5826,2.5837,2.5862,2.589,2.5895,2.5897,2.5981,2.598,2.598,0,0,0,0,0,0,2.5363,2.5379,2.5531,2.5471,2.5492,2.5577,2.561,2.5625,2.5651,2.5736,2.5751,2.5696,2.5816,2.5831,2.5872,2.5868,2.5897,2.5901,2.5982,2.5981,2.598,2.5909,0,0,0,0,0,0,2.5357,2.5377,2.5383,2.5471,2.5495,2.5563,2.561,2.5627,2.566,2.5667,2.575,2.5764,2.5818,2.5864,2.5877,2.5875,2.5905,2.5983,2.5981,2.598,2.5912,2.5906,2.59,0,0,0,0,0,2.5349,2.5356,2.5383,2.54,2.5505,2.5563,2.5577,2.564,2.5659,2.5666,2.5721,2.5761,2.5866,2.5868,2.5883,2.5882,2.5983,2.5982,2.598,2.5915,2.5907,2.5901,0,0,0,0,0,0,2.5264,2.5368,2.54,2.5435,2.549,2.5578,2.5589,2.5629,2.5678,2.5683,2.5757,2.5775,2.581,2.585,2.585,2.5902,2.593,2.5931,2.5874,2.5868,2.5862,2.5852,2.5909,0,0,0,0,0,2.5249,2.5289,2.5378,2.54,2.5426,2.5503,2.553,2.5574,2.5633,2.5657,2.5714,2.5769,2.5815,2.5843,2.589,2.5918,2.5938,2.5925,2.5919,2.5914,2.5915,2.5935,2.5931,2.5975,2.5975,2.5975,0,0,2.5219,2.5281,2.5301,2.5385,2.5432,2.5472,2.5521,2.556,2.559,2.5662,2.5706,2.575,2.5816,2.5852,2.5871,2.5887,2.5907,2.5912,2.5907,2.5911,2.5933,2.5929,2.5925,2.5974,2.5974,2.5975,0,0,2.5185,2.5235,2.5261,2.5309,2.5381,2.5432,2.5438,2.5521,2.5554,2.5599,2.5655,2.5691,2.5768,2.5814,2.5847,2.5833,2.5873,2.5845,2.5815,2.5834,2.5831,2.5828,2.5825,2.5823,2.5846,2.5845,2.5845,0,2.5139,2.5201,2.5269,2.5306,2.5341,2.541,2.5437,2.5479,2.5562,2.5585,2.5602,2.5702,2.5751,2.58,2.5797,2.582,2.583,2.5837,2.5826,2.5824,2.5822,2.582,2.5819,2.5842,2.5842,2.5843,2.5843,0,2.5141,2.5183,2.5195,2.5277,2.5313,2.5344,2.5417,2.5446,2.5487,2.5536,2.5582,2.5644,2.5706,2.572,2.5759,2.5775,2.5783,2.5812,2.5842,2.5813,2.5813,2.5812,2.5837,2.5838,2.5839,2.584,0,0,2.5057,2.5177,2.518,2.5219,2.5305,2.5339,2.5373,2.5435,2.546,2.5514,2.5546,2.5611,2.5639,2.5676,2.5721,2.5738,2.5725,2.5765,2.5768,2.5757,2.5749,2.5728,2.5726,2.5752,2.5752,2.5752,2.5744,0,2.5038,2.5105,2.5168,2.5213,2.5254,2.5321,2.5351,2.5407,2.5454,2.5495,2.5547,2.5593,2.5625,2.5648,2.5668,2.5723,2.5725,2.5724,2.5783,2.5784,2.5766,2.5726,2.5704,2.5693,2.5744,2.5744,2.5744,0,2.5024,2.5079,2.5128,2.5212,2.5232,2.5258,2.5321,2.536,2.5424,2.5458,2.5501,2.5549,2.5589,2.5614,2.5671,2.5669,2.5697,2.5727,2.5728,2.5738,2.5763,2.5735,2.5691,2.569,2.5744,2.5744,2.5744,0,2.496,2.5046,2.5088,2.5118,2.5216,2.5234,2.5276,2.5341,2.5375,2.543,2.5453,2.5511,2.5543,2.5586,2.5649,2.566,2.57,2.5729,2.5729,2.5728,2.5736,2.5735,2.5697,2.575,2.575,2.575,2.575,0,2.4933,2.4961,2.5061,2.5086,2.512,2.5192,2.5224,2.5271,2.5329,2.5365,2.5425,2.5457,2.5538,2.5579,2.5628,2.567,2.5683,2.5711,2.5724,2.5707,2.5704,2.5727,2.573,2.575,2.575,2.575,2.575,0,2.4868,2.4936,2.4986,2.5076,2.5099,2.512,2.5197,2.5225,2.5276,2.5321,2.5335,2.5415,2.5468,2.5535,2.5607,2.5641,2.5677,2.5696,2.5656,2.5664,2.5661,2.5661,2.5639,2.564,2.569,2.5689,2.5689,0,2.4847,2.4871,2.4964,2.4994,2.5034,2.508,2.5116,2.5187,2.5222,2.5299,2.5317,2.5375,2.5426,2.5507,2.5571,2.5627,2.5649,2.5637,2.5658,2.5641,2.5652,2.565,2.5654,2.5632,2.5631,2.5631,2.563,0,2.4804,2.4837,2.4887,2.4949,2.499,2.5042,2.5097,2.5117,2.52,2.5236,2.5292,2.5331,2.5407,2.5464,2.553,2.5572,2.5615,2.5623,2.5627,2.561,2.5587,2.5602,2.5644,2.5624,2.5624,2.5625,2.5625,2.5625,2.4762,2.4787,2.4858,2.4912,2.4961,2.5011,2.5042,2.5098,2.5146,2.5215,2.5254,2.5309,2.5375,2.5468,2.5509,2.5553,2.5568,2.5573,2.5574,2.5575,2.557,2.5579,2.5564,2.5565,2.5565,2.5565,2.5565,0,2.4724,2.4773,2.4822,2.4898,2.494,2.4978,2.5041,2.5074,2.5123,2.5181,2.523,2.5295,2.5351,2.542,2.5481,2.5503,2.5524,2.5516,2.5516,2.5526,2.5552,2.5544,2.5498,2.5498,2.5498,2.5498,2.5498,2.5498,2.4709,2.4755,2.4796,2.4867,2.4915,2.4971,2.5004,2.5051,2.5098,2.5168,2.5216,2.5261,2.5325,2.5391,2.5444,2.5463,2.5483,2.547,2.5495,2.5518,2.5524,2.5529,2.5522,2.5473,2.5473,2.5466,2.5466,2.5466]}]]